Terug naar catalogus

STARLINK-31827

ActiefCommunicatieVLEO
NORAD 59727·PAYLOAD·🇺🇸 United States

Gelanceerd May 10, 2024 vanaf Vandenberg Space Force Base

Loading…

Volgende Passages (komende 24 uur)

TLE

VersSource: CelesTrak SupGP

Epoch: Sep 15, 2026, 02:34 UTC

1 59727C 24088V   26258.10743056  .00062040  00000+0  19946-2 0  2581
2 59727  53.1603 339.0744 0001224  81.9505  42.0796 15.31678352    17

Volg STARLINK-31827 in realtime met AllMySat

Download on the App Store